Regional Weather Roundup
Issued by NWS

Home | Current Version | Previous Version | Text Only | Print | Product List | Glossary On
Versions: 1 2 3 4 5 6 7 8 9 10 11 12 13 14 15 16 17 18 19 20 21 22 23 24 25 26 27 28 29 30 31 32 33 34 35 36 37 38 39 40 41 42 43 44 45 46 47 48 49 50
000
ASUS44 KBMX 220110
RWRAL

ALABAMA REGIONAL WEATHER ROUNDUP
NATIONAL WEATHER SERVICE BIRMINGHAM AL
800 PM CDT TUE OCT 21 2014

NOTE: "FAIR" INDICATES FEW OR NO CLOUDS BELOW 12,000 FEET
WITH NO SIGNIFICANT WEATHER AND/OR OBSTRUCTIONS TO VISIBILITY.

THE REMARK "TC" DENOTES TEMPERATURE IN DEGREES CELSIUS.

ALZ001>011-014-016>018-020-220200-
NORTH ALABAMA

CITY           SKY/WX    TMP DP  RH WIND       PRES   REMARKS
MUSCLE SHOALS  CLEAR     62  48  60 N3        30.06R
HUNTSVILLE     CLEAR     60  47  61 NW5       30.04R
DECATUR        CLEAR     57  48  72 N6        30.04R
HALEYVILLE     FAIR      54  49  83 CALM      30.08R
GADSDEN        CLEAR     55  48  76 CALM      30.03R
$$

ALZ012-013-022-023-030>036-040>044-220200-
WEST CENTRAL ALABAMA

CITY           SKY/WX    TMP DP  RH WIND       PRES   REMARKS
TUSCALOOSA     CLEAR     65  50  58 N8        30.02R
$$

ALZ015-024>027-033>036-040>044-220200-
CENTRAL ALABAMA

CITY           SKY/WX    TMP DP  RH WIND       PRES   REMARKS
BIRMINGHAM     CLEAR     59  49  69 CALM      30.05R
MONTGOMERY     CLEAR     66  54  65 NW5       29.99R
SHELBY CO ARPT CLEAR     62  54  74 NW3       30.02R
MAXWELL AFB    CLEAR     62  59  89 NW2       29.99R
GREENVILLE     FAIR      61  55  81 CALM      30.00R
$$

ALZ019-021-028-029-037-038-045>048-220200-
EAST CENTRAL ALABAMA

CITY           SKY/WX    TMP DP  RH WIND       PRES   REMARKS
ANNISTON       CLEAR     59  50  72 CALM      30.02R
ALEXANDER CITY CLEAR     61  56  85 CALM      30.01R
AUBURN         CLEAR     63  52  67 N5        30.03R
$$

ALZ051>064-220200-
SOUTHWEST ALABAMA

CITY           SKY/WX    TMP DP  RH WIND       PRES   REMARKS
MOBILE         PTCLDY    60  56  86 CALM      30.01R
BROOKLEY FIELD CLEAR     62  57  83 NW5       30.01R
EVERGREEN      CLEAR     61  57  87 CALM      30.00R
$$

ALZ049-050-065>069-220200-
SOUTHEAST ALABAMA

CITY           SKY/WX    TMP DP  RH WIND       PRES   REMARKS
DOTHAN         CLEAR     65  55  70 NW5       30.02R
OZARK          CLEAR     69  55  60 NW5       29.99R
TROY           CLEAR     60  54  80 CALM      29.99S
EUFAULA          N/A     58  54  86 CALM      29.98R
$$



USA.gov is the U.S. government's official web portal to all federal, state and local government web resources and services.